• In Deutschland
  • Länderverzeichnis
  • Für 7 Tage
  • Wassertemperatur
  • Satellitenkarten
  • Wetterkarte
  • Widgets
  • user-avatar
    Anmelden

    Stündliche Wetter Makapa

    Heute, 20 September, Donnerstag

    Zeit Temperatur Niederschläge Wind Luftdruck Luftfeuchtigkeit
    00:00 +27°C° 0 mm 3 m/S 759 mmHg 86%
    01:00 +27°C° 0 mm 3 m/S 759 mmHg 87%
    02:00 +26°C° 0 mm 2 m/S 759 mmHg 88%
    03:00 +26°C° 0 mm 2 m/S 758 mmHg 90%
    04:00 +26°C° 0 mm 2 m/S 758 mmHg 90%
    05:00 +26°C° 0 mm 2 m/S 758 mmHg 91%
    06:00 +25°C° 0 mm 2 m/S 758 mmHg 92%
    07:00 +27°C° 0.1 mm 2 m/S 758 mmHg 85%
    08:00 +29°C° 0.1 mm 2 m/S 759 mmHg 78%
    09:00 +31°C° 0.1 mm 3 m/S 759 mmHg 70%
    10:00 +33°C° 0 mm 3 m/S 759 mmHg 64%
    11:00 +34°C° 0 mm 3 m/S 758 mmHg 58%
    12:00 +36°C° 0 mm 3 m/S 758 mmHg 52%
    13:00 +36°C° 0 mm 3 m/S 758 mmHg 50%
    14:00 +37°C° 0 mm 4 m/S 757 mmHg 47%
    15:00 +37°C° 0 mm 4 m/S 756 mmHg 45%
    16:00 +36°C° 0 mm 4 m/S 756 mmHg 50%
    17:00 +34°C° 0 mm 3 m/S 756 mmHg 56%
    18:00 +33°C° 0 mm 3 m/S 756 mmHg 62%
    19:00 +31°C° 0 mm 3 m/S 757 mmHg 66%
    20:00 +30°C° 0 mm 4 m/S 757 mmHg 71%
    21:00 +28°C° 0 mm 4 m/S 758 mmHg 76%
    22:00 +28°C° 0 mm 4 m/S 758 mmHg 79%
    23:00 +27°C° 0 mm 3 m/S 758 mmHg 82%

    Morgen, 21 September, Freitag

    Zeit Temperatur Niederschläge Wind Luftdruck Luftfeuchtigkeit
    00:00 +27°C° 0 mm 3 m/S 759 mmHg 86%
    01:00 +27°C° 0 mm 3 m/S 758 mmHg 87%
    02:00 +26°C° 0 mm 3 m/S 758 mmHg 89%
    03:00 +26°C° 0 mm 3 m/S 757 mmHg 91%
    04:00 +26°C° 0 mm 2 m/S 757 mmHg 92%
    05:00 +25°C° 0 mm 2 m/S 757 mmHg 93%
    06:00 +25°C° 0 mm 2 m/S 757 mmHg 94%
    07:00 +27°C° 0 mm 3 m/S 758 mmHg 84%
    08:00 +29°C° 0 mm 3 m/S 758 mmHg 75%
    09:00 +32°C° 0 mm 4 m/S 759 mmHg 65%
    10:00 +34°C° 0 mm 4 m/S 759 mmHg 59%
    11:00 +35°C° 0 mm 4 m/S 758 mmHg 53%
    12:00 +37°C° 0 mm 4 m/S 758 mmHg 47%
    13:00 +37°C° 0 mm 4 m/S 757 mmHg 46%
    14:00 +37°C° 0 mm 4 m/S 756 mmHg 45%
    15:00 +37°C° 0 mm 4 m/S 756 mmHg 44%
    16:00 +36°C° 0 mm 4 m/S 755 mmHg 50%
    17:00 +34°C° 0 mm 3 m/S 755 mmHg 56%
    18:00 +33°C° 0 mm 3 m/S 755 mmHg 61%
    19:00 +31°C° 0 mm 3 m/S 756 mmHg 67%
    20:00 +29°C° 0 mm 3 m/S 757 mmHg 72%
    21:00 +28°C° 0 mm 3 m/S 758 mmHg 78%
    22:00 +28°C° 0 mm 3 m/S 758 mmHg 81%
    23:00 +27°C° 0 mm 3 m/S 758 mmHg 84%

    übermorgen, 22 September, Samstag

    Zeit Temperatur Niederschläge Wind Luftdruck Luftfeuchtigkeit
    00:00 +27°C° 0 mm 3 m/S 758 mmHg 88%
    01:00 +26°C° 0 mm 2 m/S 758 mmHg 89%
    02:00 +26°C° 0 mm 2 m/S 757 mmHg 91%
    03:00 +26°C° 0 mm 2 m/S 757 mmHg 93%
    04:00 +26°C° 0 mm 2 m/S 757 mmHg 93%
    05:00 +25°C° 0 mm 2 m/S 757 mmHg 94%
    06:00 +25°C° 0 mm 2 m/S 757 mmHg 94%
    07:00 +27°C° 0 mm 2 m/S 757 mmHg 86%
    08:00 +29°C° 0 mm 2 m/S 758 mmHg 77%
    09:00 +31°C° 0 mm 3 m/S 758 mmHg 68%
    10:00 +34°C° 0 mm 3 m/S 758 mmHg 61%
    11:00 +35°C° 0 mm 3 m/S 758 mmHg 53%
    12:00 +37°C° 0 mm 3 m/S 757 mmHg 46%
    13:00 +37°C° 0 mm 3 m/S 757 mmHg 44%
    14:00 +38°C° 0 mm 3 m/S 756 mmHg 42%
    15:00 +38°C° 0 mm 3 m/S 755 mmHg 40%
    16:00 +37°C° 0 mm 3 m/S 755 mmHg 45%
    17:00 +35°C° 0 mm 3 m/S 755 mmHg 51%
    18:00 +33°C° 0 mm 3 m/S 755 mmHg 57%
    19:00 +31°C° 0 mm 3 m/S 756 mmHg 63%
    20:00 +30°C° 0 mm 3 m/S 756 mmHg 68%
    21:00 +29°C° 0 mm 4 m/S 757 mmHg 74%
    22:00 +28°C° 0 mm 3 m/S 757 mmHg 78%
    23:00 +28°C° 0 mm 3 m/S 757 mmHg 82%

    23 September, Sonntag

    Zeit Temperatur Niederschläge Wind Luftdruck Luftfeuchtigkeit
    00:00 +27°C° 0 mm 3 m/S 758 mmHg 86%
    01:00 +27°C° 0 mm 3 m/S 757 mmHg 88%
    02:00 +26°C° 0 mm 2 m/S 756 mmHg 90%
    03:00 +26°C° 0 mm 2 m/S 756 mmHg 92%
    04:00 +26°C° 0 mm 2 m/S 756 mmHg 93%
    05:00 +26°C° 0 mm 2 m/S 756 mmHg 93%
    06:00 +26°C° 0 mm 2 m/S 756 mmHg 94%
    07:00 +28°C° 0 mm 2 m/S 757 mmHg 85%
    08:00 +29°C° 0 mm 3 m/S 757 mmHg 76%
    09:00 +31°C° 0 mm 3 m/S 758 mmHg 67%
    10:00 +34°C° 0 mm 3 m/S 758 mmHg 59%
    11:00 +36°C° 0 mm 3 m/S 757 mmHg 52%
    12:00 +37°C° 0 mm 3 m/S 757 mmHg 45%
    13:00 +38°C° 0 mm 3 m/S 756 mmHg 43%
    14:00 +38°C° 0 mm 4 m/S 756 mmHg 42%
    15:00 +38°C° 0 mm 4 m/S 755 mmHg 40%
    16:00 +37°C° 0 mm 4 m/S 755 mmHg 47%
    17:00 +35°C° 0 mm 4 m/S 755 mmHg 53%
    18:00 +33°C° 0 mm 3 m/S 756 mmHg 59%
    19:00 +32°C° 0 mm 4 m/S 756 mmHg 64%
    20:00 +30°C° 0 mm 4 m/S 757 mmHg 70%
    21:00 +29°C° 0 mm 4 m/S 757 mmHg 75%
    22:00 +28°C° 0 mm 3 m/S 758 mmHg 79%
    23:00 +28°C° 0 mm 3 m/S 758 mmHg 82%

    24 September, Montag

    Zeit Temperatur Niederschläge Wind Luftdruck Luftfeuchtigkeit
    00:00 +27°C° 0 mm 3 m/S 758 mmHg 85%
    01:00 +27°C° 0 mm 2 m/S 757 mmHg 87%
    02:00 +27°C° 0 mm 2 m/S 757 mmHg 89%
    03:00 +26°C° 0 mm 2 m/S 756 mmHg 91%
    04:00 +26°C° 0 mm 2 m/S 757 mmHg 91%
    05:00 +26°C° 0 mm 2 m/S 757 mmHg 92%
    06:00 +26°C° 0 mm 2 m/S 757 mmHg 92%
    07:00 +28°C° 0 mm 3 m/S 757 mmHg 84%
    08:00 +30°C° 0 mm 3 m/S 758 mmHg 75%
    09:00 +33°C° 0 mm 3 m/S 758 mmHg 66%
    10:00 +35°C° 0 mm 3 m/S 758 mmHg 58%
    11:00 +36°C° 0 mm 3 m/S 757 mmHg 51%
    12:00 +38°C° 0 mm 3 m/S 757 mmHg 43%
    13:00 +38°C° 0 mm 3 m/S 756 mmHg 42%
    14:00 +38°C° 0 mm 4 m/S 756 mmHg 41%
    15:00 +40°C° 0 mm 4 m/S 755 mmHg 40%
    16:00 +37°C° 0 mm 4 m/S 755 mmHg 46%
    17:00 +35°C° 0 mm 4 m/S 756 mmHg 52%
    18:00 +33°C° 0 mm 3 m/S 756 mmHg 59%
    19:00 +31°C° 0 mm 3 m/S 757 mmHg 64%
    20:00 +30°C° 0 mm 3 m/S 757 mmHg 70%
    21:00 +29°C° 0 mm 3 m/S 758 mmHg 76%
    22:00 +28°C° 0 mm 3 m/S 758 mmHg 79%
    23:00 +28°C° 0 mm 3 m/S 758 mmHg 83%

    25 September, Dienstag

    Zeit Temperatur Niederschläge Wind Luftdruck Luftfeuchtigkeit
    00:00 +27°C° 0 mm 2 m/S 758 mmHg 86%
    01:00 +27°C° 0 mm 2 m/S 757 mmHg 88%
    02:00 +27°C° 0 mm 2 m/S 757 mmHg 90%
    03:00 +26°C° 0 mm 2 m/S 756 mmHg 92%
    04:00 +26°C° 0 mm 2 m/S 756 mmHg 92%
    05:00 +26°C° 0 mm 2 m/S 757 mmHg 93%
    06:00 +26°C° 0 mm 2 m/S 757 mmHg 94%
    07:00 +28°C° 0 mm 2 m/S 757 mmHg 85%
    08:00 +30°C° 0 mm 2 m/S 758 mmHg 75%
    09:00 +32°C° 0 mm 2 m/S 758 mmHg 66%
    10:00 +35°C° 0 mm 2 m/S 758 mmHg 57%
    11:00 +37°C° 0 mm 2 m/S 757 mmHg 49%
    12:00 +39°C° 0 mm 2 m/S 757 mmHg 40%
    13:00 +39°C° 0 mm 2 m/S 756 mmHg 39%
    14:00 +39°C° 0 mm 3 m/S 755 mmHg 38%
    15:00 +39°C° 0 mm 3 m/S 754 mmHg 37%
    16:00 +37°C° 0 mm 3 m/S 754 mmHg 44%
    17:00 +36°C° 0 mm 3 m/S 755 mmHg 50%
    18:00 +34°C° 0 mm 4 m/S 755 mmHg 56%
    19:00 +33°C° 0 mm 4 m/S 755 mmHg 62%
    20:00 +30°C° 0 mm 4 m/S 756 mmHg 68%
    21:00 +29°C° 0 mm 4 m/S 757 mmHg 74%
    22:00 +29°C° 0 mm 4 m/S 757 mmHg 78%
    23:00 +28°C° 0 mm 3 m/S 757 mmHg 81%
    Mehr zeigen